Notices

What's New in latest Release from April 7th, 2021:

- Updated Glossary, including Speed of Maximum Gust, and Total Hourly Precipitation

- Updated national and regional climate services offices contacts and prices information

- Addition of station inventory lists for 1981-2010, 1971-2000, and 1961-1990 Normals.

If you haven't already, please take our survey and provide feedback about our website: https://eccc.sondage-survey.ca/f/LanguageSelection.aspx?s=442ca660-fcf1-47c0-95a9-59707d6fd709

Hourly Data Report for July 08, 2003

TORONTO CITY
ONTARIO

43°40'00.000" N
79°24'00.000" W
112.50 m
6158355
71508
XTO

Download Data

Hourly Data (July 2003)
Hourly Data Report for July 8, 2003
TIME
LST
Temp Definition
°C
Dew Point Definition
°C
Rel Hum Definition
%
Precip. Amount Definition
mm

Wind Dir Definition
10's deg

Wind Spd Definition
km/h
Visibility Definition
km
Stn Press Definition
kPa
Hmdx Definition


Wind Chill Definition


Weather Definition


00:00 20.3 19.6 96   LegendMM LegendMM LegendMM 99.71 28   LegendNANA
01:00 20.4 19.8 96   LegendMM LegendMM LegendMM 99.67 28   LegendNANA
02:00 19.7 19.2 97   LegendMM LegendMM LegendMM 99.66     LegendNANA
03:00 20.5 20.2 98   LegendMM LegendMM LegendMM 99.66 28   LegendNANA
04:00 19.6 19.3 98   LegendMM LegendMM LegendMM 99.64     LegendNANA
05:00 19.9 19.6 98   LegendMM LegendMM LegendMM 99.65     LegendNANA
06:00 20.6 20.3 98   LegendMM LegendMM LegendMM 99.72 28   LegendNANA
07:00 23.5 21.4 88   LegendMM LegendMM LegendMM 99.75 32   LegendNANA
08:00 25.2 20.7 76   LegendMM LegendMM LegendMM 99.73 33   LegendNANA
09:00 26.3 20.4 70   LegendMM LegendMM LegendMM 99.76 34   LegendNANA
10:00 27.3 17.2 54   LegendMM LegendMM LegendMM 99.80 33   LegendNANA
11:00 28.1 15.9 47   LegendMM LegendMM LegendMM 99.80 33   LegendNANA
12:00 29.3 15.7 44   LegendMM LegendMM LegendMM 99.81 34   LegendNANA
13:00 29.5 15.5 43   LegendMM LegendMM LegendMM 99.80 34   LegendNANA
14:00 29.4 14.2 39   LegendMM LegendMM LegendMM 99.87 33   LegendNANA
15:00 29.0 15.4 44   LegendMM LegendMM LegendMM 99.86 33   LegendNANA
16:00 28.0 14.2 43   LegendMM LegendMM LegendMM 99.88 31   LegendNANA
17:00 26.5 12.8 43   LegendMM LegendMM LegendMM 99.85 29   LegendNANA
18:00 26.1 13.5 46   LegendMM LegendMM LegendMM 99.78 29   LegendNANA
19:00 25.1 13.1 47   LegendMM LegendMM LegendMM 99.83 28   LegendNANA
20:00 24.4 13.6 51   LegendMM LegendMM LegendMM 99.98 28   LegendNANA
21:00 24.0 14.1 54   LegendMM LegendMM LegendMM 100.01 27   LegendNANA
22:00 22.8 15.6 64   LegendMM LegendMM LegendMM 100.00 27   LegendNANA
23:00 22.6 13.0 55   LegendMM LegendMM LegendMM 99.95 25   LegendNANA

Notes on Data Quality.

Legend

  • E = Estimated
  • M = Missing
  • NA = Not Available*
  • [empty] = Indicates an unobserved value
Date modified: